Location: Casteau
(50.5142°N, 4.0161°E)
Time: 16:49:24
(UTC+00:00)

S-56A Canister/Altair - Pass Details

Date: 09 August 2021
Orbit: 632 x 2500 km, 38.9° (Epoch: 20 September)

Event Time Altitude Azimuth Distance (km) Brightness Sun altitude
Rises 18:59:04 0° 278° (W) 6,006 14.1 1.4°
Reaches altitude 10° 19:04:38 10° 263° (W) 5,126 12.9 0.6°
Maximum altitude 19:13:26 19° 227° (SW) 4,438 11.7 -0.7°
Drops below altitude 10° 19:22:01 10° 190° (S) 4,935 11.5 -1.9°
Sets 19:27:17 0° 174° (S) 5,707 11.6 -2.6°
